Weather in Adzherom

Russia / Komi Republic     61°51′04″N   51°40′33″E
temp.,
°C
wind,
m/s
gust,
m/s
humid.,
%
clouds,
%
prec.,
mm/h
press.,
hPa
HPBL,
m
17 may, mon
mon1700:00+15sw27831 0.9 1008150
03:00+13sw39900 0.9 1009249
06:00+16sw410755 0.0 1010663
09:00+18w696497 0.4 10101427
12:00+17wnw586494 0.4 10131182
15:00+17nw4761100 0.5 10141258
18:00+14nw477799 0.1 1016782
21:00+13nnw378097 0.1 1018713
18 may, tue
tue1800:00+10nne37860 0.0 1020385
03:00+7nne12960 0.0 102246
06:00+11ne23660 0.0 1023450
09:00+16ne22440 0.0 10241028
12:00+20ne22345 0.0 10231389
15:00+21e2131100 0.0 10221513
18:00+19ese124196 0.0 102288
21:00+14ese225531 0.0 102329
19 may, wed
wed1900:00+11sse266176 0.0 1023108
03:00+10s267263 0.0 1023110
06:00+16s375373 0.0 1023282
09:00+22ssw354193 0.0 10221011
12:00+25ssw45335 0.0 10201530
15:00+26ssw453132 0.0 10191485
18:00+23ssw37392 0.0 1019747
21:00+17ssw39615 0.0 1019159
20 may, thu
thu2000:00+15ssw310693 0.0 1019175
03:00+13ssw297760 0.0 1019159
06:00+18ssw365960 0.0 1019266
09:00+24sw464012 0.0 10181027
12:00+27sw462714 0.0 10171770
15:00+28sw46235 0.0 10161919
18:00+26sw37322 0.0 1015546
21:00+19ssw385746 0.0 1015137
21 may, fri
fri2100:00+17ssw311676 0.0 1016251
03:00+14ssw210754 0.0 1017193
06:00+19ssw495425 0.0 1016403
09:00+24ssw5740100 0.0 10151210
12:00+26ssw5828100 0.0 10142069
15:00+27ssw58240 0.0 10132608
18:00+25ssw510305 0.0 10122247
21:00+19sw41264100 0.3 1012868